Weather reports worldwide

Advertisment
Milano/Malpensa, Italy (16066): temperature & dewpoint: 14.08.2019 06:00:00 - 20.08.2019 06:00:00 (CEST)Milano/Malpensa, Italy (16066): wind speed: 14.08.2019 06:00:00 - 20.08.2019 06:00:00 (CEST)Milano/Malpensa, Italy (16066): wind direction: 14.08.2019 06:00:00 - 20.08.2019 06:00:00 (CEST)Milano/Malpensa, Italy (16066): reduced air pressure: 14.08.2019 06:00:00 - 20.08.2019 06:00:00 (CEST)Milano/Malpensa, Italy (16066): visibility: 14.08.2019 06:00:00 - 20.08.2019 06:00:00 (CEST)Milano/Malpensa, Italy (16066): precipitation: 14.08.2019 06:00:00 - 20.08.2019 06:00:00 (CEST)
Date & Time tt [°C] td [°C] ff [km/h] ff [kn] dd ppp [hPa] vv [km] rr [mm]
20.08.2019 06:00:00 21,0 21,0 13 7 N - 10 -
20.08.2019 05:00:00 21,0 21,0 11 6 N - 10 -
20.08.2019 04:00:00 21,0 20,0 11 6 N - 10 -
20.08.2019 03:00:00 21,0 20,0 9 5 NNE - 10 -
20.08.2019 02:00:00 21,0 19,0 15 8 NNE - 10 -
20.08.2019 01:00:00 22,0 20,0 21 11 N - 10 -
20.08.2019 00:00:00 22,0 20,0 9 5 NNE - 10 -
19.08.2019 23:00:00 22,0 19,0 11 6 N - 10 -
19.08.2019 22:00:00 23,0 19,0 8 4 N - 10 -
19.08.2019 21:00:00 24,0 20,0 13 7 NNW - 10 -
19.08.2019 20:00:00 25,0 20,0 11 6 N - 10 -
19.08.2019 19:00:00 28,0 18,0 15 8 NNW - 10 -
19.08.2019 18:00:00 29,0 17,0 5 3 ENE - 10 -
19.08.2019 17:00:00 29,0 15,0 5 3 ESE - 10 -
19.08.2019 16:00:00 29,0 15,0 8 4 S - 10 -
19.08.2019 15:00:00 28,0 16,0 9 5 - - 10 -
19.08.2019 14:00:00 28,0 17,0 11 6 ENE - 10 -
19.08.2019 13:00:00 27,0 17,0 8 4 SE - 10 -
19.08.2019 12:00:00 25,0 19,0 5 3 - - 10 -
19.08.2019 11:00:00 24,0 19,0 11 6 SSE - 10 -
19.08.2019 10:00:00 24,0 18,0 8 4 WSW - 10 -
19.08.2019 09:00:00 24,0 19,0 9 5 SSE - 10 -
19.08.2019 08:00:00 22,4 18,3 4 2 - 1016,5 10 -
19.08.2019 07:00:00 21,0 18,0 2 1 - - 10 -
19.08.2019 06:00:00 22,0 18,0 2 1 - - 10 -
19.08.2019 05:00:00 21,7 19,1 5 3 S 1015,7 10 0,0
19.08.2019 04:00:00 24,0 19,0 5 3 NW - 10 -
19.08.2019 03:00:00 23,0 19,0 4 2 - - 10 -
19.08.2019 02:00:00 23,9 19,1 5 3 W 1016,2 10 -
19.08.2019 01:00:00 25,0 20,0 9 5 WSW - 10 -
19.08.2019 00:00:00 25,0 19,0 13 7 SW - 10 -
18.08.2019 23:00:00 25,6 19,3 13 7 WSW 1016,3 10 0,0
18.08.2019 22:00:00 26,0 18,0 11 6 WSW - 10 -
18.08.2019 21:00:00 27,0 18,0 11 6 SW - 10 -
18.08.2019 20:00:00 27,7 16,7 4 2 - 1015,2 10 -
18.08.2019 19:00:00 29,0 17,0 4 2 - - 10 -
18.08.2019 18:00:00 29,0 17,0 8 4 S - 10 -
18.08.2019 17:00:00 29,1 15,8 5 3 - 1015,7 10 0,0
18.08.2019 16:00:00 29,0 16,0 5 3 ESE - 10 -
18.08.2019 15:00:00 29,0 16,0 4 2 - - 10 -
18.08.2019 14:00:00 28,2 16,2 5 3 NNW 1016,5 10 -
18.08.2019 13:00:00 28,0 17,0 5 3 - - 10 -
18.08.2019 12:00:00 26,0 17,0 8 4 N - 10 -
18.08.2019 11:00:00 25,4 17,6 8 4 - 1017,2 10 0,0
18.08.2019 10:00:00 23,0 17,0 8 4 N - 10 -
18.08.2019 09:00:00 22,0 17,0 9 5 NNE - 10 -
18.08.2019 08:00:00 20,8 16,8 11 6 NNE 1016,7 10 -
18.08.2019 07:00:00 20,0 17,0 9 5 NNE - 10 -
18.08.2019 06:00:00 20,0 17,0 8 4 NNE - 10 -
18.08.2019 05:00:00 19,0 17,0 8 4 NNE 1016,3 10 0,0
18.08.2019 04:00:00 19,0 16,0 8 4 NNE - 10 -
18.08.2019 03:00:00 19,0 16,0 9 5 NNE - 10 -
18.08.2019 02:00:00 19,6 16,9 9 5 N 1016,9 10 -
18.08.2019 01:00:00 20,0 17,0 11 6 N - 10 -
18.08.2019 00:00:00 20,0 18,0 9 5 N - 10 -
17.08.2019 23:00:00 20,8 16,5 5 3 NNE 1016,6 10 0,0
17.08.2019 22:00:00 23,0 16,0 2 1 - - 10 -
17.08.2019 21:00:00 26,0 15,0 5 3 WNW - 10 -
17.08.2019 20:00:00 26,6 15,7 9 5 W 1016,3 10 -
17.08.2019 19:00:00 28,0 15,0 8 4 WNW - 10 -
17.08.2019 18:00:00 28,0 14,0 11 6 W - 10 -
17.08.2019 17:00:00 27,8 14,6 8 4 - 1016,5 10 0,0
17.08.2019 16:00:00 28,0 15,0 8 4 - - 10 -
17.08.2019 15:00:00 28,0 15,0 8 4 - - 10 -
17.08.2019 14:00:00 26,6 14,6 8 4 - 1017,6 10 -
17.08.2019 13:00:00 27,0 15,0 5 3 - - 10 -
17.08.2019 12:00:00 27,0 16,0 5 3 - - 10 -
17.08.2019 11:00:00 24,6 15,1 8 4 - 1018,2 10 0,0
17.08.2019 10:00:00 23,0 16,0 5 3 NE - 10 -
17.08.2019 09:00:00 21,0 15,0 9 5 NNE - 10 -
17.08.2019 08:00:00 18,9 15,2 11 6 NNE 1017,9 10 -
17.08.2019 07:00:00 17,0 15,0 11 6 NNE - 10 -
17.08.2019 06:00:00 17,0 15,0 11 6 NNE - 10 -
17.08.2019 05:00:00 17,4 14,3 11 6 NNE 1017,4 10 0,0
17.08.2019 04:00:00 18,0 15,0 9 5 N - 10 -
17.08.2019 03:00:00 18,0 15,0 9 5 N - 10 -
17.08.2019 02:00:00 18,0 15,0 9 5 NNE - 10 -
17.08.2019 01:00:00 18,0 15,0 8 4 NNE - 10 -
17.08.2019 00:00:00 18,0 16,0 11 6 N - 10 -
16.08.2019 23:00:00 19,8 15,6 4 2 - 1017,3 10 0,0
16.08.2019 22:00:00 23,0 16,0 4 2 - - 10 -
16.08.2019 21:00:00 25,0 15,0 9 5 WSW - 10 -
16.08.2019 20:00:00 25,8 14,9 11 6 W 1015,9 10 -
16.08.2019 19:00:00 27,0 14,0 11 6 W - 10 -
16.08.2019 18:00:00 28,0 13,0 11 6 W - 10 -
16.08.2019 17:00:00 27,3 13,3 13 7 WSW 1016,2 10 0,0
16.08.2019 16:00:00 29,0 13,0 9 5 SW - 10 -
16.08.2019 15:00:00 28,0 13,0 8 4 - - 10 -
16.08.2019 14:00:00 27,4 12,0 11 6 E 1017,3 10 -
16.08.2019 13:00:00 26,0 13,0 8 4 NNE - 10 -
16.08.2019 12:00:00 25,0 13,0 5 3 - - 10 -
16.08.2019 11:00:00 24,0 13,7 8 4 E 1018,8 10 0,0
16.08.2019 10:00:00 22,0 13,0 9 5 NE - 10 -
16.08.2019 09:00:00 20,0 14,0 9 5 E - 10 -
16.08.2019 08:00:00 19,4 14,7 8 4 E 1018,1 10 -
16.08.2019 07:00:00 19,0 15,0 11 6 E - 10 -
16.08.2019 06:00:00 19,0 15,0 13 7 ENE - 10 -
16.08.2019 05:00:00 17,3 14,8 11 6 ENE 1016,4 10 0,0
16.08.2019 04:00:00 17,0 15,0 8 4 N - 10 -
16.08.2019 03:00:00 17,0 15,0 13 7 N - 10 -
16.08.2019 02:00:00 17,8 15,8 9 5 NNE 1015,0 10 -
16.08.2019 01:00:00 19,0 15,0 11 6 N - 10 -
16.08.2019 00:00:00 19,0 15,0 11 6 N - 10 -
15.08.2019 23:00:00 20,4 15,1 8 4 N 1014,6 10 0,0
15.08.2019 22:00:00 24,0 14,0 9 5 NW - 10 -
15.08.2019 21:00:00 25,0 13,0 11 6 W - 10 -
15.08.2019 20:00:00 25,9 13,5 13 7 W 1014,2 10 -
15.08.2019 19:00:00 27,0 12,0 13 7 W - 10 -
15.08.2019 18:00:00 28,0 14,0 11 6 WSW - 10 -
15.08.2019 17:00:00 27,9 13,2 4 2 - 1014,5 10 0,0
15.08.2019 16:00:00 26,0 13,0 8 4 ENE - 10 -
15.08.2019 15:00:00 27,0 14,0 4 2 - - 10 -
15.08.2019 14:00:00 25,3 14,6 8 4 SW 1016,2 10 -
15.08.2019 13:00:00 25,0 14,0 11 6 WSW - 10 -
15.08.2019 12:00:00 25,0 14,0 8 4 ENE - 10 -
15.08.2019 11:00:00 24,3 13,6 9 5 ENE 1017,7 10 0,0
15.08.2019 10:00:00 22,0 14,0 13 7 N - 10 -
15.08.2019 09:00:00 20,0 13,0 13 7 N - 10 -
15.08.2019 08:00:00 18,8 13,3 11 6 N 1017,6 10 -
15.08.2019 07:00:00 17,0 13,0 11 6 NNE - 10 -
15.08.2019 06:00:00 17,0 14,0 11 6 NNE - 10 -
15.08.2019 05:00:00 16,5 13,4 11 6 N 1017,3 10 0,0
15.08.2019 04:00:00 18,0 14,0 13 7 N - 10 -
15.08.2019 03:00:00 19,0 14,0 11 6 E - 10 -
15.08.2019 02:00:00 18,3 14,1 9 5 ENE 1017,4 10 -
15.08.2019 01:00:00 17,0 13,0 4 2 - - 10 -
15.08.2019 00:00:00 17,0 12,0 5 3 NNE - 10 -
14.08.2019 23:00:00 17,6 11,4 5 3 ENE 1016,3 10 0,0
14.08.2019 22:00:00 24,0 10,0 11 6 WSW - 10 -
14.08.2019 21:00:00 24,0 10,0 11 6 SW - 10 -
14.08.2019 20:00:00 26,3 7,1 13 7 WSW 1014,5 10 -
14.08.2019 19:00:00 28,0 7,0 18 10 WSW - 10 -
14.08.2019 18:00:00 29,0 2,0 8 4 SW - 10 -
14.08.2019 17:00:00 29,5 2,3 8 4 NW 1014,6 10 0,0
14.08.2019 16:00:00 29,0 3,0 8 4 - - 10 -
14.08.2019 15:00:00 29,0 2,0 9 5 NW - 10 -
14.08.2019 14:00:00 28,1 4,5 11 6 - 1015,8 10 -
14.08.2019 13:00:00 27,0 3,0 5 3 - - 10 -
14.08.2019 12:00:00 26,0 5,0 8 4 - - 10 -
14.08.2019 11:00:00 25,2 5,0 15 8 NE 1016,0 10 0,0
14.08.2019 10:00:00 24,0 4,0 24 13 NNE - 10 -
14.08.2019 09:00:00 23,0 4,0 16 9 NNE - 10 -
14.08.2019 08:00:00 21,5 3,0 24 13 NNE 1013,6 10 -
14.08.2019 07:00:00 20,0 3,0 16 9 NNE - 10 -
14.08.2019 06:00:00 18,0 3,0 13 7 N - 10 -

tt = temperature
td = dewpoint
ff = wind speed
dd = wind direction
ppp = reduced air pressure
vv = visibility
rr = precipitation

Next stations